EWG26U EDDM-EDDK

Flight info

Callsign EWG26U
Flight time 0h 51m
Altitude 24000
Route GIVMI1N GIVMI Y101 ERNAS T161 GOLMO DCT AKANU L603 RATIM DCT ASKIK T840 GULKO GULKO1F
Aircraft A319/M-SDE3FGHIRWY/LB1

Departure

Time 2026-05-04 08:41
Airport Munich Airport (EDDM)

Arrival

Time 2026-05-04 09:32
Airport Cologne Bonn Airport (EDDK)
Time Latitude Longitude Altitude Speed Heading
2026-05-04 07:55 48.35730 11.79257 1467 ft 0 kts 263°
2026-05-04 08:29 48.35731 11.79270 1460 ft 4 kts 264°
2026-05-04 08:31 48.35717 11.79408 1457 ft 0 kts 354°
2026-05-04 08:35 48.35980 11.79501 1462 ft 9 kts 354°
2026-05-04 08:35 48.36034 11.79494 1464 ft 7 kts 354°
2026-05-04 08:35 48.36048 11.79492 1466 ft 2 kts 355°
2026-05-04 08:35 48.36085 11.79484 1465 ft 8 kts 352°
2026-05-04 08:37 48.36266 11.80165 1461 ft 20 kts 84°
2026-05-04 08:37 48.36283 11.80388 1464 ft 22 kts 84°
2026-05-04 08:37 48.36293 11.80526 1463 ft 1 kts 83°
2026-05-04 08:38 48.36297 11.80569 1464 ft 7 kts 83°
2026-05-04 08:38 48.36305 11.80664 1467 ft 12 kts 82°
2026-05-04 08:38 48.36319 11.80829 1465 ft 20 kts 83°
2026-05-04 08:40 48.36563 11.80460 1463 ft 58 kts 263°
2026-05-04 08:40 48.36490 11.79521 1465 ft 120 kts 263°
2026-05-04 08:40 48.36379 11.78027 1631 ft 152 kts 265°
2026-05-04 08:41 48.36263 11.76474 2285 ft 149 kts 264°
2026-05-04 08:41 48.36157 11.74919 2861 ft 150 kts 266°
2026-05-04 08:41 48.36055 11.73358 3376 ft 150 kts 265°
2026-05-04 08:41 48.35936 11.71801 3881 ft 150 kts 265°
2026-05-04 08:42 48.35813 11.70252 4401 ft 150 kts 263°
2026-05-04 08:42 48.35772 11.68554 4681 ft 174 kts 278°
2026-05-04 08:42 48.36181 11.66764 4934 ft 196 kts 301°
2026-05-04 08:42 48.36943 11.64928 5219 ft 219 kts 302°
2026-05-04 08:43 48.37797 11.62857 5561 ft 246 kts 302°
2026-05-04 08:43 48.38743 11.60550 6083 ft 271 kts 301°
2026-05-04 08:43 48.39751 11.58074 6939 ft 281 kts 300°
2026-05-04 08:43 48.40778 11.55543 7922 ft 284 kts 300°
2026-05-04 08:44 48.41811 11.52993 8951 ft 287 kts 299°
2026-05-04 08:44 48.42853 11.50420 9958 ft 290 kts 299°
2026-05-04 08:46 48.56254 11.40307 14827 ft 362 kts 347°
2026-05-04 08:46 48.58746 11.39627 15554 ft 366 kts 347°
2026-05-04 08:46 48.61227 11.38942 16274 ft 369 kts 347°
2026-05-04 08:46 48.63764 11.38239 17017 ft 372 kts 347°
2026-05-04 08:47 48.66319 11.37529 17736 ft 375 kts 347°
2026-05-04 08:47 48.68876 11.36666 18445 ft 376 kts 340°
2026-05-04 08:47 48.71294 11.35171 18891 ft 376 kts 329°
2026-05-04 08:47 48.73507 11.33094 19018 ft 374 kts 323°
2026-05-04 08:48 48.75663 11.30901 19054 ft 374 kts 323°
2026-05-04 08:48 48.77823 11.28697 19053 ft 374 kts 323°
2026-05-04 08:48 48.79982 11.26492 19053 ft 374 kts 323°
2026-05-04 08:48 48.82146 11.24288 19057 ft 374 kts 323°
2026-05-04 08:49 48.84296 11.22051 19056 ft 373 kts 319°
2026-05-04 08:50 48.95021 11.06927 19362 ft 372 kts 306°
2026-05-04 08:50 48.96450 11.03658 19979 ft 371 kts 295°
2026-05-04 08:51 48.97469 11.00056 20604 ft 371 kts 286°
2026-05-04 08:51 48.98305 10.96318 21212 ft 374 kts 286°
2026-05-04 08:51 48.99147 10.92555 21827 ft 377 kts 286°
2026-05-04 08:51 49.00345 10.87550 22597 ft 384 kts 294°
2026-05-04 08:52 49.01308 10.85206 22982 ft 390 kts 306°
2026-05-04 08:52 49.03094 10.82064 23616 ft 393 kts 309°
2026-05-04 08:52 49.04913 10.78941 23963 ft 395 kts 309°
2026-05-04 08:52 49.06736 10.75825 24057 ft 390 kts 309°
2026-05-04 08:53 49.08490 10.72830 24081 ft 377 kts 309°
2026-05-04 08:54 49.20030 10.51634 24087 ft 371 kts 306°
2026-05-04 08:55 49.21671 10.48589 24076 ft 371 kts 306°
2026-05-04 08:55 49.23313 10.45541 24073 ft 371 kts 306°
2026-05-04 08:55 49.24951 10.42495 24070 ft 371 kts 306°
2026-05-04 08:55 49.26590 10.39443 24071 ft 371 kts 306°
2026-05-04 08:57 49.38003 10.18068 24064 ft 370 kts 305°
2026-05-04 09:01 49.60652 9.75192 24055 ft 367 kts 305°
2026-05-04 09:01 49.62257 9.72127 24048 ft 367 kts 305°
2026-05-04 09:01 49.63861 9.69060 24044 ft 367 kts 305°
2026-05-04 09:01 49.65462 9.65989 24041 ft 367 kts 304°
2026-05-04 09:02 49.67062 9.62911 24040 ft 367 kts 304°
2026-05-04 09:02 49.68658 9.59841 24037 ft 367 kts 304°
2026-05-04 09:02 49.70255 9.56766 24033 ft 367 kts 304°
2026-05-04 09:02 49.71855 9.53687 24035 ft 367 kts 304°
2026-05-04 09:03 49.73456 9.50611 24050 ft 367 kts 304°
2026-05-04 09:03 49.75057 9.47533 24040 ft 368 kts 304°
2026-05-04 09:03 49.76659 9.44442 24034 ft 368 kts 304°
2026-05-04 09:03 49.78259 9.41344 24029 ft 368 kts 304°
2026-05-04 09:04 49.79854 9.38243 24026 ft 369 kts 304°
2026-05-04 09:04 49.81452 9.35139 24022 ft 369 kts 304°
2026-05-04 09:04 49.83052 9.32032 24032 ft 369 kts 304°
2026-05-04 09:04 49.84652 9.28928 24035 ft 368 kts 304°
2026-05-04 09:05 49.86252 9.25825 24032 ft 368 kts 304°
2026-05-04 09:05 49.87848 9.22725 24032 ft 368 kts 304°
2026-05-04 09:05 49.89443 9.19624 24032 ft 368 kts 304°
2026-05-04 09:05 49.91038 9.16516 24031 ft 368 kts 304°
2026-05-04 09:06 49.92628 9.13410 24033 ft 368 kts 304°
2026-05-04 09:07 50.03782 8.91493 24017 ft 370 kts 303°
2026-05-04 09:08 50.05374 8.88347 24020 ft 370 kts 303°
2026-05-04 09:08 50.06970 8.85194 24020 ft 370 kts 303°
2026-05-04 09:08 50.08565 8.82047 24029 ft 370 kts 303°
2026-05-04 09:08 50.10159 8.78894 24030 ft 370 kts 303°
2026-05-04 09:09 50.11749 8.75740 24033 ft 370 kts 303°
2026-05-04 09:09 50.13332 8.72587 24032 ft 369 kts 303°
2026-05-04 09:09 50.14911 8.69438 24032 ft 369 kts 303°
2026-05-04 09:09 50.16496 8.66289 24030 ft 369 kts 303°
2026-05-04 09:10 50.18047 8.63178 24028 ft 368 kts 303°
2026-05-04 09:10 50.19607 8.60012 24026 ft 368 kts 302°
2026-05-04 09:10 50.21161 8.56838 24023 ft 368 kts 302°
2026-05-04 09:10 50.22729 8.53618 24021 ft 368 kts 302°
2026-05-04 09:11 50.24253 8.50479 24022 ft 368 kts 302°
2026-05-04 09:11 50.25799 8.47300 24016 ft 368 kts 302°
2026-05-04 09:11 50.27347 8.44123 24015 ft 368 kts 302°
2026-05-04 09:11 50.29022 8.41081 24017 ft 372 kts 311°
2026-05-04 09:12 50.31062 8.38542 24014 ft 378 kts 322°
2026-05-04 09:12 50.33291 8.36346 24013 ft 378 kts 323°
2026-05-04 09:14 50.48695 8.20960 22148 ft 368 kts 323°
2026-05-04 09:14 50.50848 8.18797 21664 ft 366 kts 323°
2026-05-04 09:14 50.52986 8.16647 21177 ft 364 kts 323°
2026-05-04 09:14 50.55110 8.14501 20698 ft 362 kts 323°
2026-05-04 09:15 50.57224 8.12361 20228 ft 360 kts 323°
2026-05-04 09:15 50.59329 8.10238 19769 ft 358 kts 323°
2026-05-04 09:15 50.61423 8.08129 19324 ft 357 kts 323°
2026-05-04 09:15 50.63507 8.06030 18889 ft 355 kts 323°
2026-05-04 09:17 50.78100 7.87325 15266 ft 325 kts 299°
2026-05-04 09:18 50.79315 7.84326 14827 ft 323 kts 299°
2026-05-04 09:18 50.80528 7.81347 14414 ft 321 kts 299°
2026-05-04 09:18 50.81732 7.78392 14006 ft 319 kts 299°
2026-05-04 09:18 50.82928 7.75449 13570 ft 317 kts 299°
2026-05-04 09:19 50.84113 7.72530 13136 ft 314 kts 299°
2026-05-04 09:19 50.85289 7.69631 12715 ft 312 kts 299°
2026-05-04 09:19 50.86454 7.66758 12299 ft 309 kts 299°
2026-05-04 09:19 50.87606 7.63906 11899 ft 306 kts 300°
2026-05-04 09:20 50.88747 7.61070 11492 ft 304 kts 300°
2026-05-04 09:20 50.89874 7.58256 11084 ft 301 kts 300°
2026-05-04 09:20 50.90993 7.55465 10692 ft 299 kts 300°
2026-05-04 09:20 50.92107 7.52695 10290 ft 297 kts 300°
2026-05-04 09:21 50.93212 7.49950 9943 ft 293 kts 300°
2026-05-04 09:21 50.94286 7.47281 9714 ft 281 kts 300°
2026-05-04 09:21 50.95331 7.44679 9248 ft 279 kts 300°
2026-05-04 09:21 50.96368 7.42093 8911 ft 277 kts 300°
2026-05-04 09:22 50.97397 7.39528 8555 ft 275 kts 300°
2026-05-04 09:22 50.98421 7.36969 8200 ft 274 kts 300°
2026-05-04 09:22 50.99441 7.34416 7845 ft 273 kts 300°
2026-05-04 09:22 51.00452 7.31869 7495 ft 272 kts 300°
2026-05-04 09:23 51.01457 7.29335 7145 ft 271 kts 300°
2026-05-04 09:23 51.02462 7.26805 6801 ft 270 kts 300°
2026-05-04 09:23 51.03448 7.24319 6452 ft 269 kts 300°
2026-05-04 09:23 51.04444 7.21806 6089 ft 268 kts 301°
2026-05-04 09:25 51.07506 7.02773 3855 ft 253 kts 265°
2026-05-04 09:25 51.07406 7.00031 3729 ft 244 kts 265°
2026-05-04 09:26 51.07313 6.97392 3597 ft 235 kts 266°
2026-05-04 09:26 51.07137 6.94863 3476 ft 226 kts 251°
2026-05-04 09:26 51.06360 6.92789 3346 ft 215 kts 223°
2026-05-04 09:26 51.05129 6.91571 3221 ft 205 kts 197°
2026-05-04 09:27 51.03756 6.91343 3115 ft 195 kts 173°
2026-05-04 09:27 51.02504 6.92002 3022 ft 188 kts 150°
2026-05-04 09:27 51.01496 6.93306 3004 ft 187 kts 138°
2026-05-04 09:27 51.00541 6.94703 3008 ft 186 kts 138°
2026-05-04 09:28 50.99587 6.96097 3006 ft 186 kts 138°
2026-05-04 09:28 50.98635 6.97488 2961 ft 186 kts 138°
2026-05-04 09:28 50.97684 6.98878 2776 ft 184 kts 138°
2026-05-04 09:28 50.96731 7.00258 2565 ft 187 kts 138°
2026-05-04 09:29 50.95774 7.01650 2342 ft 186 kts 139°
2026-05-04 09:29 50.94835 7.03009 2128 ft 181 kts 139°
2026-05-04 09:29 50.93919 7.04350 1829 ft 176 kts 138°
2026-05-04 09:29 50.93047 7.05631 1587 ft 165 kts 139°
2026-05-04 09:30 50.92252 7.06791 1426 ft 145 kts 138°
2026-05-04 09:30 50.91555 7.07803 1173 ft 131 kts 139°
2026-05-04 09:30 50.90899 7.08753 1027 ft 126 kts 137°
2026-05-04 09:30 50.90260 7.09687 881 ft 124 kts 136°
2026-05-04 09:31 50.89622 7.10611 702 ft 123 kts 136°
2026-05-04 09:31 50.88990 7.11533 546 ft 124 kts 136°
2026-05-04 09:31 50.88365 7.12432 392 ft 120 kts 136°
2026-05-04 09:31 50.87760 7.13320 242 ft 111 kts 135°
2026-05-04 09:32 50.87293 7.13999 243 ft 68 kts 137°
2026-05-04 09:32 50.87014 7.14404 255 ft 48 kts 137°
2026-05-04 09:34 50.87281 7.13404 233 ft 24 kts 319°
2026-05-04 09:34 50.87402 7.13202 232 ft 27 kts 313°
2026-05-04 09:34 50.87503 7.13086 232 ft 18 kts 318°
2026-05-04 09:34 50.87599 7.12944 232 ft 20 kts 318°
2026-05-04 09:35 50.87710 7.12783 232 ft 23 kts 316°
2026-05-04 09:35 50.87807 7.12647 232 ft 16 kts 320°
2026-05-04 09:35 50.87900 7.12610 232 ft 13 kts
2026-05-04 09:35 50.87955 7.12553 232 ft 7 kts 289°
2026-05-04 09:37 50.87935 7.12455 232 ft 0 kts 261°